Torna al catalogo

STARLINK-37378

AttivoComunicazioniVLEO
NORAD 69255·PAYLOAD·🇺🇸 United States

Lanciato May 30, 2026 da Cape Canaveral Space Force Station

Loading…

Prossimi Passaggi (prossime 24 ore)

TLE

AggiornatoSource: CelesTrak SupGP

Epoca: Sep 15, 2026, 03:34 UTC

1 69255C 26117T   26258.14909722 -.00047702  00000+0 -14096-2 0  2582
2 69255  53.1581 178.4473 0001287  84.1106 132.8457 15.34408592    16

Traccia STARLINK-37378 in tempo reale con AllMySat

Download on the App Store